Regional Weather Roundup
Issued by NWS Charleston, SC

Current Version | Previous Version | Graphics & Text | Print | Product List | Glossary On
Versions: 1 2 3 4 5 6 7 8 9 10 11 12 13 14 15 16 17 18 19 20 21 22 23 24 25 26 27 28 29 30 31 32 33 34 35 36 37 38 39 40 41 42 43 44 45 46 47 48 49 50
000 ASUS42 KCHS 282112 RWRCHS REGIONAL WEATHER ROUNDUP NATIONAL WEATHER SERVICE CHARLESTON SC 500 PM EDT FRI AUG 28 2015 NOTE: "FAIR" INDICATES FEW OR NO CLOUDS BELOW 12,000 FEET WITH NO SIGNIFICANT WEATHER AND/OR OBSTRUCTIONS TO VISIBILITY. NOT ALL STATIONS ARE QUALITY CONTROLLED BY THE NATIONAL WEATHER SERVICE. USE DATA WITH CAUTION...ESPECIALLY DEWPOINT OBSERVATIONS. SCZ027-030-031-034>040-042>050-282200- ...SOUTHEAST SOUTH CAROLINA... CITY SKY/WX TMP DP RH WIND PRES REMARKS N CHARLESTON CLOUDY 82 71 69 E15 30.07F WATERFRONT PRK N/A 82 75 79 E16 30.04F MOUNT PLEASANT FAIR 82 73 74 E7 30.07F JOHNS ISLAND MOCLDY 82 75 78 E15G23 30.07S PINOPOLIS N/A 86 70 58 NE10 30.02F HX 90 MONCKS CORNER FAIR 86 68 54 NE5 30.07F SUMMERVILLE FAIR 86 70 58 N7 30.08F HX 90 BEAUFORT MCAS NOT AVBL BEAUFORT ARPT MOCLDY 81 72 74 N10 30.07R HILTON HEAD IS MOSUNNY 82 73 74 NE10 30.08F WALTERBORO CLOUDY 86 70 58 NE8 30.08S HX 90 ALLENDALE FAIR 84 70 61 VRB3 30.08S ...SOUTHERN MIDLANDS AND PEE DEE... CITY SKY/WX TMP DP RH WIND PRES REMARKS GEORGETOWN NOT AVBL KINGSTREE NOT AVBL ORANGEBURG CLOUDY 85 64 49 E7 30.09F BARNWELL FAIR 84 70 61 E6 30.10R AIKEN CLOUDY 84 59 42 E9 30.13S MANNING FAIR 84 59 42 N9 30.09F COLUMBIA MOSUNNY 90 57 32 SE13 30.08F SUMTER MOSUNNY 86 58 38 NE10 30.08F FLORENCE PTSUNNY 85 60 42 E12 30.10F MYRTLE BEACH MOSUNNY 86 64 48 N10 30.10F N MYRTLE BEACH MOSUNNY 84 64 50 NE8 30.09F $$ GAZ063-065-086>088-099>101-113>116-118-119-134>141-150-282200- ...SOUTHEAST GEORGIA... CITY SKY/WX TMP DP RH WIND PRES REMARKS SAVANNAH ARPT NOT AVBL HUNTER AAF CLOUDY 84 76 76 NE5 30.04F HX 92 FORT STEWART CLOUDY 82 73 73 E1 30.05F STATESBORO CLOUDY 82 76 81 CALM 30.08F SYLVANIA CLOUDY 83 76 78 CALM 30.09F HX 91 CLAXTON NOT AVBL ...CSRA...CENTRAL AND FAR SOUTHEAST GEORGIA... CITY SKY/WX TMP DP RH WIND PRES REMARKS THOMSON PTSUNNY 86 69 55 E8 30.13F HX 90 AUGUSTA-BUSH PTSUNNY 87 67 51 E8 30.07F HX 90 AUGUSTA-DANIEL PTSUNNY 87 64 46 E9 30.09F SWAINSBORO FAIR 82 72 69 E6 30.10S VIDALIA CLOUDY 79 72 78 E5 30.09S EASTMAN FAIR 81 74 80 E3 30.11R HAZLEHURST TSTM 77 77 100 CALM 30.07S ALMA CLOUDY 77 75 93 N3 30.07S WAYCROSS CLOUDY 85 79 83 E9 30.05F HX 97 JESUP FAIR 82 77 83 E6 30.07S HX 91 BAXLEY FAIR 81 77 89 NE6 30.07S BRUNSWICK CLOUDY 75 73 94 CALM 30.07F SAINT SIMONS CLOUDY 77 74 90 N5 30.05S THUNDER $$ SCZ027-028-034-036>038-045-046-048>050-GAZ119-141-282200- ...LAKE AND SUPPLEMENTAL COASTAL OBSERVATIONS... STATION/POSITION TIME TEMP WIND PRES WAVE SWELL AIR SEA DIR/SP/G HT/PER HT/PER/DIR (UTC) (F) (DEG/KT/KT) (MB) (FT/S) (FT/S/D) UPR LAKE MARION NOT AVBL WINYAH BAY NOT AVBL LAKE MURRAY 2000 85 70/ 5/ 10 1018.6F ACE BASIN NERRS NOT AVBL FORT PULASKI NOT AVBL SAPELO ISLAND 2000 79 40/ 7 1018.0S $$ ANZ835-935-AMZ111-154-330-350-352-354-370-450-454-472-282200- ...C-MAN AND BUOY OBSERVATIONS... STATION/POSITION TIME TEMP WIND PRES WAVE SWELL AIR SEA DIR/SP/G HT/PER HT/PER/DIR (UTC) (F) (DEG/KT/KT) (MB) (FT/S) (FT/S/D) BUOY 41004 2050 80 85 50/ 19/ 21 1017.3F 4/ 5 2/ 8 BUOY 41008 2050 82 85 70/ 12/ 14 1018.0F 3/ 8 2/120/ 8 FOLLY BEACH CMAN 2000 81 60/ 19/ 21 1018.8F CAPERS NEARSHORE NOT AVBL FRIPP NEARSHORE 2000 82 70/ 17/ 21 1017.8F STATION/POSITION TIME TEMP WIND PRES WAVE SWELL AIR SEA DIR/SP/G HT/PER HT/PER/DIR (UTC) (F) (DEG/KT/KT) (MB) (FT/S) (FT/S/D) 5E ST. MARYS GA 2021 87 N/A 3/ 8 FRYING PAN BUOY 2050 81 81 50/ 19/ 23 1019.1F 6/ 6 2/ 60/12 BUOY 41025 2050 79 84 30/ 17/ 21 1019.4F 5/ 8 3/120/ 8 CAPE LOOKOUT NC 2000 79 40/ 18/ 20 1019.6F BUOY 41002 2050 83 84 210/ 6/ 6 1017.3F 3/ 8 3/ 90/ 8 BUOY 41010 2020 84 86 100/ 4/ 6 1016.8F ST AUGUSTINE FL 2100 82 88 80/ 9/ 11 1017.5R $$

USA.gov is the U.S. government's official web portal to all federal, state and local government web resources and services.